Lid_Strength_Index
11 13 15 10 9 9 10 12 13 11 8 10 11 11 10 8 8 8 7 7 6 5 4 3 2 2 2 1 1 1 1 1 2 2 1 1 2 1 1 2 1 1 1 -0
12 13 12 9 8 10 10 12 13 10 9 10 11 12 10 9 8 7 7 7 6 6 5 3 3 2 2 2 2 1 1 1 1 1 1 1 2 1 0 0 1 0 1 2
12 10 10 11 10 10 11 13 13 12 10 9 11 13 12 9 8 7 6 6 6 6 5 4 3 3 2 3 2 2 1 1 1 1 1 1 2 2 1 1 1 1 1 1
11 8 11 12 11 9 14 9 10 11 13 16 11 18 13 11 10 9 7 7 6 5 4 4 4 3 3 2 1 1 1 1 1 1 2 2 3 3 2 1 1 1 1 2
10 9 10 11 10 8 9 8 10 11 13 14 14 17 14 11 12 10 8 7 6 5 5 4 4 3 2 2 2 1 1 2 1 1 2 2 2 2 1 1 1 1 1 1
9 7 8 9 7 8 7 9 10 12 14 18 15 15 16 14 12 10 8 7 6 5 5 4 3 3 3 2 2 1 2 1 1 1 1 2 2 2 2 2 2 2 1 1
10 9 9 8 10 9 10 14 17 17 18 18 14 16 15 11 9 9 8 7 6 5 5 5 4 4 3 3 2 2 2 2 1 1 2 1 2 2 2 2 2 2 1 1
13 14 10 8 10 11 12 14 16 18 18 16 14 17 15 9 8 7 7 6 6 5 5 5 4 4 3 3 2 2 2 2 1 2 2 1 1 1 1 2 2 1 2 2
14 13 8 9 9 9 12 14 12 15 15 16 16 14 11 9 8 8 8 7 7 6 5 5 4 3 3 3 2 2 2 2 2 2 2 1 1 1 1 1 1 2 2 1
12 14 11 9 9 10 11 11 15 14 19 20 18 17 16 12 10 9 8 8 7 5 5 4 4 4 3 2 3 2 2 2 2 2 1 1 1 1 1 1 2 1 1 1
12 14 12 10 11 13 11 12 12 13 15 18 20 18 11 11 10 9 8 7 7 6 5 5 4 3 3 2 2 2 2 2 2 1 1 1 1 1 1 1 1 2 1 1
9 13 14 12 8 7 9 12 12 16 18 16 17 17 9 9 9 8 8 7 6 5 5 4 4 4 3 3 3 2 2 2 2 1 1 2 1 1 1 2 1 1 1 1
9 13 15 13 11 9 11 11 13 12 13 17 18 16 9 8 8 7 8 7 6 6 6 5 4 4 4 3 3 3 2 2 3 2 2 2 2 1 1 1 1 0 1 1
7 13 13 15 14 12 12 11 11 13 16 16 16 15 12 10 9 9 8 7 6 6 6 5 5 4 4 3 3 3 2 2 2 1 2 3 3 3 2 2 2 1 1 1
10 13 12 12 11 11 11 11 11 13 13 15 14 14 12 10 10 9 8 7 7 6 6 5 5 4 4 3 3 3 2 2 1 2 2 3 3 3 3 3 2 1 1 1
10 13 12 13 11 11 12 11 11 11 11 12 12 13 9 8 8 8 8 7 7 6 6 5 4 4 4 3 3 3 2 2 1 2 2 2 2 3 3 1 1 1 1 1
10 12 13 16 12 12 14 12 12 11 11 11 14 12 9 9 9 9 8 7 7 6 6 5 4 4 4 3 3 3 3 2 2 2 2 2 2 2 1 1 1 1 1 2
11 12 13 16 15 18 11 9 9 11 10 9 10 10 9 9 8 7 6 7 7 6 5 5 4 4 3 3 2 2 2 2 2 2 2 2 2 2 2 1 2 1 2 2
11 12 15 16 17 13 11 10 10 11 12 9 10 9 8 8 7 8 5 5 5 5 4 4 3 3 3 3 2 2 2 2 2 2 2 2 2 2 2 2 2 1 2 3
9 10 12 14 17 18 12 8 7 7 14 8 8 9 9 8 12 10 6 5 4 4 3 3 3 3 3 3 2 2 3 2 3 2 2 2 2 2 2 2 3 3 4 5
12 13 14 15 16 14 9 7 6 14 13 8 7 8 8 9 8 6 5 5 4 4 4 3 3 3 3 3 3 4 3 4 3 2 3 3 3 3 3 3 3 4 4 5
13 14 15 14 17 17 7 8 11 9 8 7 7 7 7 6 6 5 5 5 4 4 4 3 3 3 4 3 3 4 4 3 3 2 2 2 3 2 2 3 3 4 4 4
12 11 13 12 13 8 6 8 6 6 7 7 7 6 6 6 6 5 5 5 4 4 4 3 3 3 4 3 3 3 3 3 3 3 3 2 2 2 2 3 3 4 4 4
9 8 10 11 9 8 7 6 5 5 6 5 5 5 5 6 5 5 5 5 4 4 3 3 3 3 3 3 3 3 2 2 3 4 3 3 5 8 8 9 9 9 8 4
9 8 11 11 9 7 7 6 5 5 5 5 4 4 5 5 5 5 5 5 4 4 3 3 3 3 3 3 2 2 3 3 3 3 4 6 8 10 11 12 11 11 12 10
8 9 10 11 8 8 7 5 5 5 5 6 5 5 4 4 5 4 5 4 4 4 4 4 3 3 3 2 2 2 3 4 4 4 4 5 8 10 11 11 11 10 11 11